Hauptseite
METAR-TAF:

METAR-TAF

Flughäfen :

P11-b, Niederlande

Bohrplattform

Breite: 52-21-36N, Länge: 3-20-30E, Höhe: 24 m

Beobachtung

Neuester Wetterbericht von vor 20 Minuten, um 18:55 UTC
Wind 28 kt aus Nordost
Temperatur 1°C
Luftfeuchtigkeit 55%
Luftdruck 1030 hPa
Sichtweite 10 km oder mehr
Leicht bewölkt in der Höhe von 3300 ft

METAR: EHPG 251855Z AUTO 05028KT 9999 FEW033 01/M07 Q1030 W///H///

Zeit: 20:15 (19:15 UTC)


TAF: fehlend

Wetterbeobachtungen und Prognosen von mehr als 4000 Flughäfen (METAR und TAF Bericht).

Die verfügbaren Stationen werden durch gelbe und rote Markierungen auf der Karte dargestellt.

Führen Sie die Maus auf sie, um den Namen der Station zu sehen.

Darauf klicken, um die Beobachtung von Wetterbeobachtungen und Prognosen zu sehen.

Um die Karte zu ändern : klicken Sie auf den grünen Tasten mit einem schwarzen Kreuz Zum Vergrößern, auf den grünen Button mit einem Gedankenstrich zu verkleinern, oder auf die grünen Pfeile für benachbarte Karten.


METAR-TAF: